User: anonymous   Login
Location: Barruelo
(41.2448°N, 3.8231°W)
Time: 18:25:05
(UTC+00:00)
Language:

COSMOS 2455 - Orbit

View from above orbital plane
View from above orbital plane
View from above satellite
View from above satellite

Ground track
Ground track

The orbit is defined by the following mean orbital elements,

1 36095U          26041.50146190 +.00000000 +00000-0 +62294-4 0 00002
2 36095  67.1465 200.9947 0007188 247.5455 112.4869 13.97037573    07
Epoch (UTC): 10 February 2026 12:02:06
Eccentricity: 0.0007188
inclination: 67.1465°
perigee height: 899 km
apogee height: 909 km
right ascension of ascending node: 200.9947°
argument of perigee: 247.5455°
revolutions per day: 13.97037573
mean anomaly at epoch: 112.4869°

The dashed part of the orbit path shows where the satellite is in the earth's shadow,  

DLR